Zurück zum Katalog

STARLINK-5920

AktivKommunikationVLEO
NORAD 55935·PAYLOAD·🇺🇸 United States

Gestartet Mar 17, 2023 von Vandenberg Space Force Base

Loading…

Nächste Überflüge (nächste 24 Stunden)

TLE

AktuellSource: CelesTrak SupGP

Epoche: Sep 14, 2026, 21:53 UTC

1 55935C 23037X   26257.91229167  .00388390  00000+0  31112-1 0  2577
2 55935  70.0006 167.4224 0003159 270.7334  42.1418 14.99873427    17

Verfolge STARLINK-5920 in Echtzeit mit AllMySat

Download on the App Store